This demonstration page uses our WeatherBlox Daily Observations layout. Learn more.

Hourly Observations for January 13, 2016

Temp ( °F °C ) Dew Point ( °F °C ) Humidity (%) Winds ( mph kmh ) Pressure ( in mb ) Visibility ( mi km ) Precip ( " mm )
12:15 am 00:15 Mostly Cloudy 31 -0.5 20 -6.5 64 64 WSW 7 11 30.18 1022 10 16.0934 0 0
12:35 am 00:35 Mostly Cloudy 32 -0.1 20 -6.5 62 62 WSW 7 11 30.12 1020 10 16.0934 0 0
12:55 am 00:55 Mostly Cloudy 33 0.3 21 -6.3 62 62 W 9 15 30.12 1020 10 16.0934 0 0
1:15 am 01:15 Mostly Cloudy 32 0 21 -6.2 63 63 W 7 11 30.12 1020 10 16.0934 0 0
1:35 am 01:35 Cloudy 32 0.2 21 -6.2 63 63 W 8 13 30.12 1020 10 16.0934 0 0
1:55 am 01:55 Cloudy 32 0 20 -6.5 62 62 W 7 11 30.12 1020 10 16.0934 0 0
2:15 am 02:15 Cloudy 32 -0.2 21 -6.3 64 64 W 8 13 30.12 1020 10 16.0934 0 0
2:35 am 02:35 Cloudy 31 -0.4 21 -6.1 66 66 W 6 9 30.12 1020 10 16.0934 0 0
2:55 am 02:55 Cloudy 31 -0.5 21 -6 67 67 W 9 15 30.12 1020 10 16.0934 0 0
3:15 am 03:15 Cloudy 32 -0.2 22 -5.7 67 67 W 9 15 30.12 1020 10 16.0934 0 0
3:35 am 03:35 Mostly Cloudy 31 -0.7 22 -5.7 69 69 W 8 13 30.15 1021 10 16.0934 0 0
3:55 am 03:55 Partly Cloudy 30 -1.2 21 -6 70 70 W 8 13 30.15 1021 10 16.0934 0 0
4:15 am 04:15 Partly Cloudy 29 -1.4 22 -5.8 72 72 W 9 15 30.15 1021 10 16.0934 0 0
4:35 am 04:35 Cloudy 29 -1.5 22 -5.8 73 73 W 9 15 30.15 1021 10 16.0934 0 0
4:55 am 04:55 Mostly Cloudy 29 -1.7 22 -5.6 75 75 W 9 15 30.15 1021 10 16.0934 0 0
5:15 am 05:15 Partly Cloudy 29 -1.8 22 -5.7 75 75 W 8 13 30.15 1021 10 16.0934 0 0
5:35 am 05:35 Clear 28 -2.1 21 -6 75 75 W 6 9 30.12 1020 10 16.0934 0 0
5:55 am 05:55 Clear 28 -2 21 -5.9 75 75 W 9 15 30.12 1020 10 16.0934 0 0
6:15 am 06:15 Clear 28 -2.5 21 -6.1 77 77 W 8 13 30.12 1020 10 16.0934 0 0
6:35 am 06:35 Clear 27 -2.9 21 -6.2 78 78 W 8 13 30.12 1020 10 16.0934 0 0
6:55 am 06:55 Clear 26 -3.2 20 -6.5 78 78 W 6 9 30.12 1020 10 16.0934 0 0
7:15 am 07:15 Clear 26 -3.5 20 -6.5 80 80 W 6 9 30.12 1020 10 16.0934 0 0
7:35 am 07:35 Clear 25 -3.7 20 -6.6 81 81 WSW 6 9 30.15 1021 10 16.0934 0 0
7:55 am 07:55 Clear 26 -3.5 20 -6.6 79 79 W 6 9 30.12 1020 10 16.0934 0 0
8:15 am 08:15 Sunny 26 -3.5 20 -6.7 79 79 W 6 9 30.12 1020 10 16.0934 0 0
8:35 am 08:35 Sunny 27 -2.8 21 -6.2 78 78 WSW 6 9 30.12 1020 10 16.0934 0 0
8:55 am 08:55 Sunny 28 -2 21 -6 74 74 W 6 9 30.12 1020 10 16.0934 0 0
9:15 am 09:15 Sunny 30 -1.2 22 -5.7 72 72 WSW 8 13 30.12 1020 10 16.0934 0 0
9:35 am 09:35 Sunny 31 -0.5 22 -5.5 69 69 W 8 13 30.09 1019 10 16.0934 0 0
9:55 am 09:55 Sunny 33 0.4 23 -4.8 68 68 W 10 17 30.09 1019 10 16.0934 0 0
10:15 am 10:15 Sunny 35 1.5 24 -4.7 64 64 W 8 13 30.09 1019 10 16.0934 0 0
10:35 am 10:35 Sunny 37 2.7 25 -4.1 61 61 W 8 13 30.06 1018 10 16.0934 0 0
10:55 am 10:55 Sunny 38 3.2 25 -4.1 59 59 WSW 9 15 30.06 1018 10 16.0934 0 0
11:15 am 11:15 Sunny 38 3.6 26 -3.6 60 60 W 9 15 30.06 1018 10 16.0934 0 0
11:35 am 11:35 Sunny 40 4.3 26 -3.3 58 58 W 7 11 30.03 1017 10 16.0934 0 0
11:55 am 11:55 Sunny 41 5.2 26 -3.1 55 55 WSW 6 9 30.03 1017 10 16.0934 0 0
12:15 pm 12:15 Sunny 42 5.8 26 -3.3 52 52 WSW 8 13 29.97 1015 10 16.0934 0 0
12:35 pm 12:35 Sunny 44 6.5 26 -3.1 51 51 WSW 7 11 29.97 1015 10 16.0934 0 0
12:55 pm 12:55 Sunny 45 7 26 -3.1 49 49 WSW 9 15 29.97 1015 10 16.0934 0 0
1:15 pm 13:15 Sunny 46 7.8 27 -2.9 47 47 WSW 8 13 29.94 1014 10 16.0934 0 0
1:35 pm 13:35 Sunny 46 8 26 -3.3 45 45 WSW 8 13 29.94 1014 10 16.0934 0 0
1:55 pm 13:55 Sunny 47 8.5 26 -3.3 44 44 SW 8 13 29.88 1012 10 16.0934 0 0
2:15 pm 14:15 Sunny 47 8.6 26 -3.5 43 43 SW 9 15 29.88 1012 10 16.0934 0 0
2:35 pm 14:35 Sunny 48 8.8 24 -4.5 39 39 WSW 9 15 29.85 1011 10 16.0934 0 0
2:55 pm 14:55 Sunny 49 9.6 25 -3.9 39 39 WSW 7 11 29.85 1011 10 16.0934 0 0
3:15 pm 15:15 Sunny 49 9.6 24 -4.2 38 38 SW 7 11 29.83 1010 10 16.0934 0 0
3:35 pm 15:35 Sunny 51 10.3 25 -4 37 37 SW 7 11 29.83 1010 10 16.0934 0 0
3:55 pm 15:55 Sunny 52 10.9 25 -3.9 35 35 SW 9 15 29.8 1009 10 16.0934 0 0
4:15 pm 16:15 Sunny 51 10.5 25 -4 36 36 SW 7 11 29.8 1009 10 16.0934 0 0
4:35 pm 16:35 Sunny 50 9.9 26 -3.4 39 39 SSW 5 7 29.83 1010 10 16.0934 0 0
4:55 pm 16:55 Sunny 48 9.1 25 -3.7 41 41 SSW 7 11 29.8 1009 10 16.0934 0 0
5:15 pm 17:15 Sunny 47 8.2 25 -4 42 42 S 8 13 29.8 1009 10 16.0934 0 0
5:35 pm 17:35 Clear 45 7.4 24 -4.2 44 44 S 8 13 29.83 1010 10 16.0934 0 0
5:55 pm 17:55 Clear 43 6.2 24 -4.2 48 48 SSW 8 13 29.83 1010 10 16.0934 0 0
6:15 pm 18:15 Clear 42 5.4 24 -4.3 50 50 SSW 8 13 29.83 1010 10 16.0934 0 0
6:35 pm 18:35 Clear 41 5 25 -4 53 53 SSW 8 13 29.83 1010 10 16.0934 0 0
6:55 pm 18:55 Clear 42 5.5 25 -4 51 51 SSW 9 15 29.83 1010 10 16.0934 0 0
7:15 pm 19:15 Clear 40 4.2 25 -3.8 56 56 SSW 7 11 29.83 1010 10 16.0934 0 0
7:35 pm 19:35 Clear 39 4.1 25 -3.7 57 57 SW 9 15 29.83 1010 10 16.0934 0 0
7:55 pm 19:55 Clear 39 3.9 25 -4 57 57 SSW 10 17 29.83 1010 10 16.0934 0 0
8:15 pm 20:15 Clear 40 4.3 25 -4.1 55 55 SSW 10 17 29.8 1009 10 16.0934 0 0
8:35 pm 20:35 Clear 39 3.7 24 -4.4 56 56 SSW 8 13 29.8 1009 10 16.0934 0 0
8:55 pm 20:55 Clear 39 3.7 24 -4.6 55 55 SSW 9 15 29.8 1009 10 16.0934 0 0
9:15 pm 21:15 Clear 38 3.5 24 -4.5 56 56 SSW 9 15 29.77 1008 10 16.0934 0 0
9:35 pm 21:35 Clear 38 3.6 24 -4.7 55 55 SSW 7 11 29.77 1008 10 16.0934 0 0
9:55 pm 21:55 Clear 38 3.2 23 -4.8 56 56 SW 9 15 29.8 1009 10 16.0934 0 0
10:15 pm 22:15 Clear 39 4 22 -5.4 51 51 SW 12 19 29.77 1008 10 16.0934 0 0
10:35 pm 22:35 Clear 40 4.3 22 -5.5 49 49 SW 9 15 29.77 1008 10 16.0934 0 0
10:55 pm 22:55 Clear 40 4.4 22 -5.7 48 48 SW 8 13 29.77 1008 10 16.0934 0 0
11:15 pm 23:15 Clear 40 4.2 22 -5.5 50 50 SW 8 13 29.74 1007 10 16.0934 0 0
11:35 pm 23:35 Clear 39 3.7 22 -5.5 51 51 SW 8 13 29.74 1007 10 16.0934 0 0
11:55 pm 23:55 Clear 40 4.6 21 -6.1 46 46 WSW 10 17 29.74 1007 10 16.0934 0 0

Powered by AerisWeather